Regional Weather Roundup
Issued by NWS

Home | Current Version | Previous Version | Text Only | Print | Product List | Glossary Off
Versions: 1 2 3 4 5 6 7 8 9 10 11 12 13 14 15 16 17 18 19 20 21 22 23 24 25 26 27 28 29 30 31 32 33 34 35 36 37 38 39 40 41 42 43 44 45 46 47 48 49 50

000
ASUS43 KLMK 290210
RWRKY
KENTUCKY REGIONAL WEATHER ROUNDUP
NATIONAL WEATHER SERVICE LOUISVILLE KY
1000 PM EDT SAT MAY 28 2016

NOTE "FAIR" INDICATES FEW OR NO CLOUDS BELOW 12,000 FEET
WITH NO SIGNIFICANT WEATHER AND/OR OBSTRUCTIONS TO VISIBILITY.

KYZ001>023-026-027-061>063-070>075-290300-
WESTERN AND SOUTH CENTRAL KENTUCKY

CITY           SKY/WX    TMP DP  RH WIND       PRES   REMARKS
PADUCAH        MOCLDY    76  66  71 S5        30.02R
HENDERSON      PTCLDY    75  64  69 SE6       30.01F
OWENSBORO      CLOUDY    75  69  81 SE7       30.04F
HOPKINSVILLE   DRIZZLE   76  67  75 SE5       30.05S
BOWLING GREEN  CLOUDY    72  66  81 CALM      30.08S
GLASGOW        PTCLDY    71  65  81 CALM      30.10S
$$

KYZ024-025-028>034-038-045-046-053-290300-
NORTH CENTRAL KENTUCKY

CITY           SKY/WX    TMP DP  RH WIND       PRES   REMARKS
LOUISVILLE/SDF CLOUDY    74  63  68 SE7       30.07S
LOUISVILLE/LOU MOCLDY    75  63  66 S3        30.08S
FORT KNOX      MOCLDY    71  66  86 E5        30.07S
$$

KYZ035>037-039>044-047>052-055>060-089>105-290300-
NORTHEAST KENTUCKY

CITY           SKY/WX    TMP DP  RH WIND       PRES   REMARKS
LEXINGTON      PTCLDY    74  59  59 CALM      30.11S
COVINGTON      MOCLDY    71  63  75 S3        30.09F
FRANKFORT      PTCLDY    72  62  71 SE3       30.09S
$$

KYZ054-064>069-076>088-106>120-290300-
SOUTHEAST KENTUCKY

CITY           SKY/WX    TMP DP  RH WIND       PRES   REMARKS
JACKSON        CLOUDY    74  61  63 CALM      30.13S
LONDON         CLOUDY    74  65  73 CALM      30.12S
SOMERSET       PTCLDY    73  63  68 CALM      30.13R
MIDDLESBORO    PTCLDY    71  64  78 CALM      30.13R
MONTICELLO     PTCLDY    69  67  93 VRB6      30.14R
$$





USA.gov is the U.S. government's official web portal to all federal, state and local government web resources and services.